NOAA 16 DEB, 41212

Orbit data source: Space-Track

NOAA 16 DEB, 41212 is space debris in SSO originally from a launch on Thu, 21 Sep 2000 UTC launched from the Air Force Western Test Range (AFWTR). Debris objects in space refer to the collection of defunct objects orbiting the Earth. Examples of debris include non-operational satellites, rocket bodies, and fragments generated from explosions, collisions, or faulty payload assembly.

Loading next visibility...
NOAA 16 DEB details
Identifier
41212, 2000-055DR
Orbit
SSO
Last TLE update1 day ago
Origin
Flag of USNOAA (US)
ManufacturerUnknown
MissionSpacecraft
Bus & MotorUnknown
MassUnknown
Launch date (UTC)
2000-09-21 (24 years ago)
Launch vehicleUnknown
Launch site
Air Force Western Test Range (AFWTR)
Object type
Payload
Rocket body
Debris
Shape & HBRUnknown
Radar Cross SectionSmall (<0.1 m²)

Expand to show TLE details & history

TLE from 1 day ago
0 NOAA 16 DEB
1 41212U 00055DR  24360.60211420  .00013492  00000-0  52099-2 0  9997
2 41212  98.9194 120.5727 0016529  90.0077 270.2999 14.30199640467970
Epoch: 2024-12-25T14:27Z
Definitive object data (Epoch: 2024-12-25T14:27:02.666Z)
Latitude
Longitude169.21808°
Altitude793.943 km
Speed7.457 km/s
True Right ascension08h 02m 17s
True Declination0° 00' 00"
Sunlit
Object was in full shadow at TLE epoch
Visualization TLE readout
Latitude65.62934°
Longitude10.76014°
Altitude791.655 km
Speed7.47 km/s
Apparent Right ascension11h 23m 39s
Apparent Declination49° 25' 54"
Sunlit
Object is in daylight
Visualization observer readout
Local Sidereal Time22:15:49
Azimuth349.065° N
Elevation0.591°
Doppler factor1
Orbital elements
Apogee altitude800.064 km
Perigee altitude776.373 km
Semi-major axis7,166.356 km
Eccentricity0.0016529
Inclination98.9194°
RAAN120.5727°
Arg. of periapsis90.0077°
True anomaly270.11049°
Mean anomaly270.2999°
Eccentric anomaly270.2052°
Mean motion3.57763 °/min
BSTAR0.0052099
Orbital period100.63 mins
Loading maneuver chart data...
Loading historical data...
Loading historical data...
Loading historical data...
Loading historical data...
Loading historical data...
Loading historical data...
Loading historical data...

NOAA 16 DEB Visibility forecast

Observer location: undefined°, undefined

Span
Click to sort rows by Start time (UTC) header in descending order
Start Az.
Max El. time (UTC)
Max El. Az.
Max El.
End time (UTC)
End Az.
5 mins2024-12-27 06:55:35.785Z90.01° ESE2024-12-27 06:57:35.785Z62.32° ENE17.317°2024-12-27 07:00:35.785Z24.2° NE
8 mins2024-12-27 08:32:35.785Z184.065° SSW2024-12-27 08:36:35.785Z259.702° W39.58°2024-12-27 08:40:35.785Z333.862° NNW
8 mins2024-12-27 20:46:35.785Z31.268° NE2024-12-27 20:49:35.785Z86.521° E37.985°2024-12-27 20:54:35.785Z176.196° S
5 mins2024-12-27 22:26:35.785Z329.64° NNW2024-12-27 22:28:35.785Z302.603° NW18.148°2024-12-27 22:31:35.785Z261.359° W
|